| time (UTC) | temp C | wind direction | speed KPH | gust KPH | rain 1hr cm | rain 24hr cm | rain mn cm | humidity % | barometer mb |
| 20260502230006 | 14 | 161 | 8.0 | 14.5 | 0.00 | 0.00 | 0.00 | 51 | 1017.8 |
| 20260502223115 | 15 | 176 | 4.8 | 9.7 | 0.00 | 0.00 | 0.00 | 46 | 1017.8 |
| 20260502221617 | 15 | 168 | 4.8 | 8.0 | 0.00 | 0.00 | 0.00 | 46 | 1017.9 |
| 20260502220058 | 15 | 167 | 3.2 | 9.7 | 0.00 | 0.00 | 0.00 | 46 | 1017.9 |
| 20260502214546 | 16 | 171 | 6.4 | 11.3 | 0.00 | 0.00 | 0.00 | 44 | 1017.8 |
| 20260502213046 | 16 | 162 | 6.4 | 11.3 | 0.00 | 0.00 | 0.00 | 44 | 1018.0 |
| 20260502211541 | 16 | 175 | 4.8 | 9.7 | 0.00 | 0.00 | 0.00 | 45 | 1018.1 |
| 20260502210017 | 16 | 157 | 4.8 | 9.7 | 0.00 | 0.00 | 0.00 | 45 | 1018.3 |
| 20260502204523 | 16 | 146 | 4.8 | 12.9 | 0.00 | 0.00 | 0.00 | 44 | 1018.4 |
| 20260502203018 | 16 | 150 | 3.2 | 9.7 | 0.00 | 0.00 | 0.00 | 43 | 1018.4 |
| 20260502201517 | 17 | 148 | 4.8 | 9.7 | 0.00 | 0.00 | 0.00 | 42 | 1018.4 |
| 20260502200059 | 17 | 152 | 4.8 | 9.7 | 0.00 | 0.00 | 0.00 | 41 | 1018.4 |
| 20260502194555 | 17 | 184 | 3.2 | 6.4 | 0.00 | 0.00 | 0.00 | 40 | 1018.4 |
| 20260502193050 | 17 | 163 | 3.2 | 9.7 | 0.00 | 0.00 | 0.00 | 40 | 1018.4 |
| 20260502191524 | 17 | 158 | 3.2 | 4.8 | 0.00 | 0.00 | 0.00 | 39 | 1018.6 |
| 20260502190006 | 18 | 165 | 1.6 | 4.8 | 0.00 | 0.00 | 0.00 | 38 | 1018.6 |
| 20260502184508 | 18 | 146 | 3.2 | 6.4 | 0.00 | 0.00 | 0.00 | 38 | 1018.3 |
| 20260502183007 | 18 | 169 | 3.2 | 8.0 | 0.00 | 0.00 | 0.00 | 38 | 1018.3 |
| 20260502181508 | 18 | 159 | 3.2 | 9.7 | 0.00 | 0.00 | 0.00 | 39 | 1018.2 |
| 20260502163025 | 22 | 175 | 3.2 | 11.3 | 0.00 | 0.00 | 0.00 | 33 | 1018.9 |
| 20260502161505 | 22 | 130 | 6.4 | 12.9 | 0.00 | 0.00 | 0.00 | 32 | 1019.2 |
| 20260502151546 | 23 | 98 | 3.2 | 12.9 | 0.00 | 0.00 | 0.00 | 30 | 1019.8 |
| 20260502123001 | 22 | 111 | 3.2 | 16.1 | 0.00 | 0.00 | 0.00 | 30 | 1022.1 |
| 20260502121602 | 22 | 173 | 3.2 | 11.3 | 0.00 | 0.00 | 0.00 | 29 | 1022.2 |
| 20260502114534 | 22 | 140 | 8.0 | 12.9 | 0.00 | 0.00 | 0.00 | 32 | 1022.6 |
| 20260502113036 | 22 | 332 | 3.2 | 12.9 | 0.00 | 0.00 | 0.00 | 31 | 1022.7 |
| 20260502111537 | 22 | 89 | 4.8 | 19.3 | 0.00 | 0.00 | 0.00 | 32 | 1022.9 |
| 20260502110010 | 22 | 143 | 6.4 | 12.9 | 0.00 | 0.00 | 0.00 | 35 | 1023.0 |
| 20260502104511 | 22 | 136 | 4.8 | 14.5 | 0.00 | 0.00 | 0.00 | 33 | 1023.2 |
| 20260502103001 | 22 | 265 | 4.8 | 12.9 | 0.00 | 0.00 | 0.00 | 34 | 1023.3 |
| 20260502101605 | 21 | 191 | 8.0 | 12.9 | 0.00 | 0.00 | 0.00 | 33 | 1023.6 |
| 20260502091511 | 21 | 225 | 6.4 | 16.1 | 0.00 | 0.00 | 0.00 | 34 | 1024.1 |
| 20260502071532 | 19 | 227 | 3.2 | 8.0 | 0.00 | 0.00 | 0.00 | 45 | 1024.4 |
| 20260502070002 | 18 | 237 | 3.2 | 9.7 | 0.00 | 0.00 | 0.00 | 43 | 1024.7 |
| 20260502064603 | 18 | 157 | 1.6 | 9.7 | 0.00 | 0.00 | 0.00 | 45 | 1024.4 |
| 20260502063109 | 18 | 215 | 1.6 | 4.8 | 0.00 | 0.00 | 0.00 | 49 | 1024.5 |
| 20260502061548 | 17 | 221 | 1.6 | 6.4 | 0.00 | 0.00 | 0.00 | 49 | 1024.5 |
| 20260502060018 | 17 | 195 | 1.6 | 4.8 | 0.00 | 0.00 | 0.00 | 50 | 1024.5 |
| 20260502054509 | 16 | 231 | 3.2 | 8.0 | 0.00 | 0.00 | 0.00 | 50 | 1024.4 |
| 20260502053004 | 15 | 234 | 1.6 | 8.0 | 0.00 | 0.00 | 0.00 | 54 | 1024.6 |
| 20260502051605 | 15 | 236 | 1.6 | 6.4 | 0.00 | 0.00 | 0.00 | 54 | 1024.4 |
| 20260502050043 | 14 | 257 | 1.6 | 6.4 | 0.00 | 0.00 | 0.00 | 56 | 1024.4 |
| 20260502044542 | 13 | 219 | 0.0 | 4.8 | 0.00 | 0.00 | 0.00 | 57 | 1024.3 |
| 20260502043040 | 12 | 241 | 0.0 | 4.8 | 0.00 | 0.00 | 0.00 | 58 | 1024.3 |
| 20260502041536 | 11 | 242 | 3.2 | 6.4 | 0.00 | 0.00 | 0.00 | 61 | 1024.3 |
| 20260502040014 | 10 | 232 | 1.6 | 4.8 | 0.00 | 0.00 | 0.00 | 64 | 1024.2 |
| 20260502034512 | 11 | 182 | 0.0 | 6.4 | 0.00 | 0.00 | 0.00 | 64 | 1024.4 |
| 20260502033102 | 11 | 275 | 0.0 | 6.4 | 0.00 | 0.00 | 0.00 | 62 | 1024.3 |
| 20260502031556 | 11 | 308 | 1.6 | 4.8 | 0.00 | 0.00 | 0.00 | 59 | 1024.5 |
| 20260502030042 | 12 | 227 | 1.6 | 6.4 | 0.00 | 0.00 | 0.00 | 58 | 1024.2 |
| 20260502024525 | 12 | 234 | 3.2 | 4.8 | 0.00 | 0.00 | 0.00 | 57 | 1024.3 |
| 20260502023030 | 12 | 212 | 1.6 | 4.8 | 0.00 | 0.00 | 0.00 | 56 | 1024.4 |
| 20260502021520 | 12 | 215 | 3.2 | 4.8 | 0.00 | 0.00 | 0.00 | 55 | 1024.5 |
| 20260502014557 | 13 | 192 | 1.6 | 3.2 | 0.00 | 0.00 | 0.00 | 53 | 1024.5 |
| 20260502013100 | 13 | 189 | 1.6 | 3.2 | 0.00 | 0.00 | 0.00 | 53 | 1024.5 |
| 20260502011537 | 13 | 202 | 1.6 | 4.8 | 0.00 | 0.00 | 0.00 | 53 | 1024.6 |
| 20260502010017 | 13 | 204 | 1.6 | 4.8 | 0.00 | 0.00 | 0.00 | 53 | 1024.6 |